Regional Weather Roundup
Issued by NWS

Home | Current Version | Previous Version | Text Only | Print | Product List | Glossary Off
Versions: 1 2 3 4 5 6 7 8 9 10 11 12 13 14 15 16 17 18 19 20 21 22 23 24 25 26 27 28 29 30 31 32 33 34 35 36 37 38 39 40 41 42 43 44 45 46 47 48 49 50

000
ASUS45 KBOI 061910
RWRID
WEATHER ROUNDUP FOR IDAHO
NATIONAL WEATHER SERVICE BOISE ID
100 PM MDT WED MAY 06 2015

NOTE: "FAIR" INDICATES FEW OR NO CLOUDS BELOW 12000 FEET
WITH NO SIGNIFICANT WEATHER AND/OR OBSTRUCTIONS TO VISIBILITY

IDZ012-014-062000-
SOUTHWEST IDAHO


CITY           SKY/WX    TMP DP  RH WIND       PRES   REMARKS
BOISE          PTSUNNY   59  27  29 NW16G23   29.84F
CALDWELL       PTSUNNY   55  27  33 NW9G18    29.88F
MOUNTAIN HOME  CLOUDY    59  23  25 NW22G28   29.82F
$$

IDZ016-017-062000-
SOUTHCENTRAL IDAHO


CITY           SKY/WX    TMP DP  RH WIND       PRES   REMARKS
BURLEY         MOSUNNY   57  30  35 W8G20     29.79F
JEROME         CLOUDY    52  27  38 SW10      29.83F
TWIN FALLS     CLOUDY    54  25  32 W14G21    29.83F
$$

IDZ019>023-062000-
SOUTHEAST IDAHO


CITY           SKY/WX    TMP DP  RH WIND       PRES   REMARKS
IDAHO FALLS    MOSUNNY   59  38  45 CALM      29.79F
POCATELLO      MOSUNNY   59  27  29 SW12G20   29.80F
REXBURG        MOSUNNY   57  41  55 W5        29.79F
$$

IDZ006-010-011-018-031-032-062000-
CENTRAL IDAHO MOUNTAINS


CITY           SKY/WX    TMP DP  RH WIND       PRES   REMARKS
MCCALL         CLOUDY    47  25  42 W8        29.83F
HAILEY         CLOUDY    54  28  37 SE12G17   29.83S
STANLEY          N/A     53  16  23 SW8       29.80F
SALMON         MOSUNNY   57  28  33 N5        29.78F
CHALLIS        PTSUNNY   60  20  21 E8        29.76F
$$

IDZ002-004-006-007-026-062000-
NORTHERN IDAHO


CITY           SKY/WX    TMP DP  RH WIND       PRES   REMARKS
LEWISTON       MOSUNNY   61  32  33 VRB7      29.96F
LOWELL           N/A     61  32  33 VRB7      29.90F
COEUR D`ALENE  SUNNY     55  28  35 W6        29.96F
MULLAN PASS    FLURRIES  37  26  64 CALM      29.94S
$$



USA.gov is the U.S. government's official web portal to all federal, state and local government web resources and services.